GFSWCAN_850_thetae_132.txt.gz
Theta_e
294 297 298 299 298 297 297 297 296 296 295 293 293 297 298 298 298 298 298 298 299 297 297 298 298 297 296 298 298 298 298 297 295 296 298 297 298 300 300 300 301 300 298 295 299 300 299 297 297 299 295 296 295 295
296 295 297 298 298 298 298 298 296 295 295 295 293 295 297 297 297 297 297 298 298 298 297 297 297 297 298 298 298 296 297 297 297 296 296 297 298 294 297 297 297 296 296 296 297 296 296 296 296 295 294 295 295 294
294 296 296 297 298 298 298 297 296 296 296 295 292 292 296 297 297 297 297 297 298 296 295 296 297 297 297 298 298 298 297 298 298 298 294 293 295 294 294 295 293 296 298 296 299 296 297 297 296 296 294 294 294 294
291 296 295 297 298 298 298 297 296 296 296 295 294 293 293 294 294 295 295 295 296 295 295 295 296 296 297 297 297 297 298 298 298 297 295 292 295 295 293 294 291 292 295 293 297 297 298 297 296 296 294 293 294 294
290 293 294 295 297 298 298 297 296 296 296 296 297 297 296 295 295 295 294 294 295 295 294 295 296 296 295 296 295 296 297 298 297 296 292 293 295 295 294 294 289 294 290 291 291 295 296 297 296 295 293 293 293 293
288 291 295 295 295 297 298 298 297 296 296 296 297 297 296 296 295 294 295 295 295 296 295 294 295 296 296 295 295 295 295 296 296 296 294 295 296 295 291 294 295 296 297 297 298 297 296 296 295 293 292 292 292 291
288 289 293 294 294 295 298 298 298 297 296 296 296 297 296 295 294 294 294 295 295 294 294 292 295 296 296 295 295 295 295 296 296 295 295 295 295 296 291 295 296 297 298 298 297 296 295 295 293 293 292 291 290 289
288 288 291 294 294 295 297 298 298 297 297 296 296 297 295 294 294 295 294 295 295 294 294 291 294 296 296 296 296 296 296 296 296 295 295 295 295 294 294 295 295 296 296 296 295 295 295 294 293 292 291 289 288 287
287 288 291 293 294 294 295 298 297 297 297 297 296 294 293 294 294 295 295 295 295 294 293 290 292 294 297 296 297 296 296 290 295 294 295 295 294 296 295 296 297 295 295 294 294 293 292 291 291 290 289 288 286 285
287 288 290 293 293 293 295 296 298 297 296 296 294 294 293 295 294 295 294 294 294 294 294 290 293 295 296 295 293 294 294 292 290 293 294 294 295 291 291 292 292 294 292 290 291 290 289 289 288 287 286 284 284 283
288 288 289 292 292 293 294 296 296 297 296 295 294 292 295 295 293 293 292 291 291 291 292 292 293 295 296 292 290 293 291 292 294 294 294 295 293 291 289 289 289 291 291 292 290 288 286 285 285 284 283 282 282 281
288 288 288 290 291 293 294 295 295 296 295 295 295 294 294 293 292 288 284 289 292 293 291 292 293 295 296 297 295 293 294 294 295 295 296 292 286 287 288 289 289 289 288 287 286 286 285 284 283 282 281 281 281 280
288 287 288 289 290 291 294 294 295 295 295 294 293 293 293 290 286 286 288 291 290 292 292 292 287 295 296 295 294 293 295 293 295 294 292 288 287 287 287 288 287 286 286 285 284 283 282 282 281 281 280 280 279 279
289 288 287 288 288 290 294 293 294 293 294 293 293 288 288 290 287 288 290 289 292 293 293 294 293 294 295 292 291 295 291 295 291 290 290 284 287 287 287 287 287 286 285 284 283 282 281 280 280 280 279 279 279 279
289 288 288 288 287 289 292 294 293 294 293 293 292 288 286 288 290 291 291 292 293 294 294 295 295 296 291 289 292 293 297 297 293 289 283 288 288 288 287 286 286 285 283 282 281 280 279 279 278 278 278 278 278 278
288 288 288 288 288 290 292 293 294 293 293 292 291 290 289 291 292 292 292 292 293 294 296 297 294 291 291 291 295 289 291 290 287 283 288 288 288 288 287 286 284 283 282 281 280 279 279 278 278 278 277 277 277 277
288 288 288 288 289 291 293 293 293 293 292 290 289 290 291 292 293 294 293 292 294 296 287 292 291 293 290 291 295 293 290 285 287 287 286 289 288 287 286 284 283 282 281 280 279 279 279 278 278 278 278 278 277 277
288 288 289 291 290 290 292 292 292 291 289 289 288 289 288 292 292 292 293 292 295 296 297 293 295 294 288 292 288 284 287 286 286 287 288 288 287 286 284 283 282 281 280 279 279 279 279 278 278 278 277 277 277 277
288 289 289 291 291 292 292 292 291 288 288 287 288 289 290 291 291 292 293 294 295 296 297 295 287 290 288 288 288 288 287 289 287 287 286 286 285 284 283 282 281 280 280 279 279 278 278 277 277 277 277 276 276 276
288 288 289 291 292 292 292 292 291 290 288 288 289 289 289 290 290 291 292 293 294 295 293 292 288 292 292 292 292 293 291 290 289 286 284 283 283 283 282 281 280 280 279 279 278 278 278 277 276 276 276 275 275 275
290 290 291 292 292 292 291 291 290 289 289 289 288 289 288 289 289 290 291 292 293 293 288 292 292 292 292 292 292 291 291 290 289 289 287 284 282 281 281 280 280 279 279 279 278 278 277 277 276 276 275 275 275 275
291 292 292 291 291 291 291 291 291 290 289 289 288 289 289 288 289 289 290 290 290 291 291 291 292 292 291 291 291 290 290 288 287 286 285 284 283 282 281 281 280 279 278 278 278 278 277 276 276 276 275 275 275 275
292 291 292 291 291 291 290 291 290 289 284 288 289 287 285 289 289 288 288 289 289 288 289 290 290 290 290 290 289 288 288 287 286 285 285 284 282 281 280 280 279 279 278 278 278 277 276 276 276 276 275 274 274 274
292 292 292 292 291 288 291 292 291 290 290 288 287 287 287 288 288 286 281 286 287 287 287 288 288 288 288 288 288 287 287 286 285 284 284 283 282 280 280 280 279 279 278 278 278 277 277 276 276 275 274 274 274 274
292 290 291 286 290 290 290 289 289 288 285 284 286 284 284 287 280 278 279 285 286 286 286 286 286 287 287 287 287 287 286 286 285 285 283 282 282 281 280 279 279 278 278 278 277 277 276 276 276 275 275 274 274 274
288 289 289 287 288 289 288 287 287 286 285 285 284 285 286 278 280 281 283 287 288 287 286 285 285 285 285 286 286 285 285 285 284 284 283 282 281 281 280 279 278 278 277 277 277 276 276 276 275 275 275 274 274 274
286 285 289 289 290 291 288 289 289 286 284 284 282 279 280 281 280 282 287 287 287 286 286 285 285 285 285 284 284 284 283 282 282 282 282 281 279 278 278 279 278 278 278 277 277 276 275 274 273 274 274 274 273 273
288 288 284 288 289 289 284 281 282 284 283 287 285 283 282 282 283 287 287 286 286 286 286 284 284 284 283 283 283 282 281 281 280 280 280 279 279 279 279 278 278 278 278 277 276 274 274 273 273 273 273 273 273 272
287 287 287 283 287 287 286 282 282 286 286 287 281 279 282 286 287 287 287 286 285 285 284 284 283 283 282 282 282 281 281 280 280 280 279 279 279 279 278 278 278 277 276 274 274 274 273 273 273 272 272 272 272 271
285 286 285 281 279 281 283 284 284 284 285 285 286 286 286 287 287 286 286 286 285 284 284 283 283 282 282 281 281 280 280 280 280 280 280 279 279 277 277 276 275 275 274 274 274 273 273 272 272 272 271 271 271 270
285 285 284 283 279 282 282 282 283 283 283 283 283 283 283 284 284 284 285 284 284 283 282 282 282 281 281 281 281 281 280 280 279 279 279 279 278 277 277 276 275 274 274 274 273 273 272 272 271 271 271 271 270 270
283 284 283 280 281 281 281 280 280 280 279 280 280 281 281 281 282 281 280 281 281 282 282 282 282 282 282 282 282 281 281 280 280 279 279 278 277 276 276 275 274 274 274 273 273 272 272 272 271 271 270 270 270 270
282 282 282 282 280 280 279 279 279 278 279 279 279 279 279 280 279 279 278 279 279 280 281 282 282 282 282 282 282 281 280 279 278 278 278 277 276 276 275 274 274 274 273 273 273 272 272 271 271 271 271 271 270 270

GFSWCAN_850_thetae_135.txt.gz
Theta_e
295 296 298 298 298 298 297 297 295 293 293 296 297 297 298 298 299 299 299 300 299 297 296 297 297 296 297 298 299 297 299 298 298 299 299 299 301 301 302 302 302 302 302 302 302 302 302 298 297 300 298 296 296 295
295 296 298 298 298 298 297 297 296 293 295 296 297 298 298 297 297 299 299 299 299 298 296 297 297 297 298 299 298 297 298 297 297 298 299 299 300 299 299 302 299 301 300 302 301 301 298 297 297 296 295 295 296 295
294 296 297 298 298 297 297 296 295 295 294 295 296 297 297 296 296 297 298 299 298 296 296 297 296 296 298 299 299 298 297 298 297 298 296 297 298 297 300 299 299 298 298 301 301 297 298 297 296 296 295 294 294 294
294 295 297 298 298 298 297 296 296 294 293 293 295 296 296 296 297 297 297 298 298 297 295 295 296 297 296 297 299 299 298 298 297 297 296 297 298 295 297 296 298 297 298 299 299 299 298 296 296 296 294 293 294 294
293 294 296 298 298 298 297 297 296 296 296 292 293 295 294 294 295 296 296 296 296 297 295 295 295 295 295 296 297 298 298 297 297 297 296 297 295 296 295 296 296 295 295 299 299 296 297 297 296 295 293 293 292 292
291 295 295 297 298 298 297 296 296 296 295 296 295 295 295 294 294 295 294 295 295 296 296 296 295 295 295 295 296 297 297 297 296 295 295 295 295 295 296 296 295 295 295 295 297 297 296 296 295 293 292 292 291 290
289 294 294 296 297 298 297 296 297 297 297 297 296 296 295 295 295 295 295 295 295 296 296 295 296 295 295 295 295 295 295 295 295 294 294 295 295 295 296 296 295 295 297 297 297 296 295 294 294 292 292 291 289 288
288 293 294 295 297 298 297 297 296 296 297 297 296 295 294 294 295 295 295 294 294 294 295 295 296 296 295 295 296 295 295 296 296 294 295 295 295 295 296 295 294 295 296 296 295 295 295 294 292 291 290 288 287 286
288 291 294 294 295 297 298 297 296 296 296 296 294 294 294 294 295 295 295 294 294 294 293 292 296 297 296 296 296 296 296 295 295 296 296 296 296 297 296 296 296 296 295 294 294 294 293 292 290 289 288 286 285 284
288 291 293 294 294 297 297 297 297 297 296 295 294 294 294 295 295 295 295 295 294 294 293 292 293 297 296 295 293 294 294 294 295 294 294 296 296 290 291 293 293 294 293 293 292 290 289 289 288 286 285 284 283 282
288 290 293 293 294 296 297 297 297 297 295 294 294 294 294 293 293 293 292 292 291 292 292 292 295 297 295 294 294 291 293 294 295 296 296 296 296 292 289 291 291 290 291 291 291 290 288 286 285 284 283 282 281 281
287 289 292 292 293 295 296 296 297 296 296 295 295 294 294 293 292 289 288 291 292 293 291 292 293 295 296 296 293 293 295 295 296 295 296 297 292 288 288 289 289 289 289 289 287 287 285 284 283 282 281 281 281 280
288 289 292 292 293 295 296 296 296 296 296 294 294 293 293 290 288 289 289 291 292 291 291 292 292 294 295 294 293 294 295 295 295 298 297 295 287 286 287 288 287 287 287 286 286 284 283 282 281 281 280 280 279 279
288 288 290 291 292 294 294 296 294 294 294 294 293 290 286 288 288 290 292 291 291 292 292 293 291 294 293 293 293 294 294 295 296 294 296 290 287 286 287 287 287 286 286 285 284 282 281 281 280 280 279 279 279 278
287 288 289 289 290 293 294 294 293 294 293 292 292 289 287 287 289 290 291 291 292 293 293 294 294 294 293 293 296 294 296 297 295 295 292 287 288 288 287 287 287 286 284 282 282 281 280 280 279 279 278 278 278 277
288 288 288 288 289 293 293 294 294 293 293 292 290 288 287 289 289 291 292 292 292 293 295 296 294 293 293 295 296 294 294 293 294 290 288 288 288 288 287 286 285 283 282 282 281 280 279 279 278 278 278 277 277 277
288 288 288 288 290 291 293 293 293 292 291 290 289 289 290 290 290 292 292 292 293 294 293 292 292 294 292 294 295 294 293 292 287 287 287 289 289 288 287 285 283 282 281 280 280 279 279 278 278 278 278 277 277 276
288 288 288 289 291 292 292 291 291 290 289 289 288 289 289 291 292 292 292 293 294 295 296 295 293 294 295 294 293 290 287 286 286 286 288 288 288 287 286 284 282 281 280 280 279 279 279 278 278 278 277 277 277 276
288 289 289 289 290 292 292 291 291 288 287 288 288 289 289 290 291 292 292 293 295 296 296 294 292 295 293 290 290 288 286 287 285 286 287 287 287 285 283 282 282 280 280 279 279 278 278 278 278 277 277 277 276 276
289 290 291 291 291 291 292 291 290 289 287 287 288 288 289 289 291 292 292 293 295 295 294 292 292 293 293 293 293 293 292 290 289 286 285 284 283 283 283 282 281 280 279 279 278 278 277 277 277 277 276 276 276 275
290 291 291 291 291 291 291 290 289 289 288 288 288 288 287 289 289 291 291 292 293 293 291 294 294 294 294 293 293 293 291 291 290 290 287 283 282 282 281 280 280 280 279 279 278 278 277 277 277 276 276 275 275 275
290 291 291 291 291 291 291 290 290 289 288 288 288 288 287 285 287 289 290 291 292 293 293 294 294 293 293 292 292 292 291 290 288 288 286 285 283 282 281 281 280 279 279 278 278 278 277 277 276 276 275 275 275 275
291 292 291 291 291 291 290 290 289 289 285 287 289 286 285 287 288 288 288 289 290 290 291 292 292 291 292 291 291 290 289 288 288 287 286 285 284 282 281 280 280 279 279 278 278 277 277 276 276 276 275 275 274 274
292 292 292 291 290 287 290 291 290 289 289 288 287 285 287 287 287 286 285 286 288 288 289 289 289 290 290 289 289 289 288 287 286 285 284 284 282 281 280 280 279 279 278 278 278 277 277 276 276 276 275 275 274 274
290 290 290 285 290 289 285 286 287 287 284 286 287 285 286 286 284 283 284 285 287 287 287 287 287 288 289 289 288 287 287 286 286 285 284 283 282 281 280 279 279 279 279 278 278 277 277 276 276 276 275 275 274 274
287 288 288 287 289 290 289 288 288 288 286 285 284 284 285 283 284 285 284 287 288 288 287 287 287 287 287 288 288 287 286 286 285 285 284 283 282 282 281 280 279 279 278 278 277 277 276 276 275 275 275 274 274 274
288 287 288 289 289 290 289 289 289 288 287 288 285 284 284 283 281 283 287 287 287 286 287 286 286 286 287 286 286 286 286 285 285 285 284 283 281 280 280 279 279 278 278 277 277 277 276 275 274 274 274 274 273 273
288 288 287 287 288 288 286 285 286 288 286 286 285 284 283 283 285 287 287 287 286 286 286 286 285 285 284 284 285 285 284 284 283 283 282 281 281 279 279 278 279 278 278 278 277 276 275 274 274 273 273 273 273 273
287 287 287 282 286 286 283 283 283 285 285 286 285 283 283 286 286 286 286 286 286 285 285 285 284 283 283 283 283 283 283 283 282 281 281 281 280 279 279 279 278 278 278 277 275 275 274 274 274 273 273 272 272 271
285 285 285 280 280 282 282 283 284 284 284 285 285 286 286 286 286 285 285 285 285 284 284 283 284 283 283 282 282 282 281 281 281 281 281 280 280 279 279 278 278 277 276 275 274 274 274 274 273 273 272 272 271 271
284 285 284 281 279 281 281 282 282 283 283 283 283 283 283 283 282 282 282 282 283 283 283 282 282 282 282 282 282 282 281 280 280 280 279 279 279 278 277 277 276 275 275 274 274 274 273 273 273 272 272 271 271 271
283 282 282 279 280 280 280 280 280 280 279 280 280 280 280 281 280 278 278 279 280 280 281 281 282 282 282 281 281 281 281 281 280 280 279 279 279 278 277 276 275 274 274 274 274 273 273 273 272 272 272 271 271 271
281 281 281 281 280 280 279 279 278 278 278 279 278 278 278 278 277 276 276 277 278 279 280 280 280 281 281 281 281 281 281 280 280 279 279 278 277 276 276 275 274 274 274 273 273 273 273 272 272 272 272 271 271 270

GFSWCAN_850_thetae_138.txt.gz
Theta_e
294 296 298 298 298 297 296 295 295 296 297 299 299 298 298 300 299 299 299 299 300 298 297 299 299 300 301 301 302 300 300 300 301 302 301 302 303 303 304 304 303 303 304 304 304 304 304 300 301 303 302 299 299 298
294 297 298 298 298 297 295 293 295 296 297 298 298 297 297 299 298 299 298 299 299 298 296 297 298 299 301 301 300 300 302 301 301 302 302 302 303 303 304 305 302 304 304 304 304 304 302 300 301 300 299 299 299 297
295 297 298 298 298 297 295 293 295 295 296 297 297 297 297 298 300 299 298 298 298 297 297 298 297 297 299 300 300 301 300 299 300 301 302 302 302 302 303 303 304 302 301 303 302 302 302 300 299 299 298 298 297 296
295 297 298 298 297 297 296 293 294 295 297 296 296 296 297 299 299 299 298 299 298 298 299 296 296 297 298 299 299 300 299 299 298 300 301 301 301 299 301 301 303 302 302 303 302 301 300 300 299 299 297 296 296 294
295 296 298 298 298 296 296 295 295 294 295 295 295 296 296 297 297 299 298 298 298 299 298 297 296 297 298 298 298 298 299 299 299 300 301 300 298 299 299 299 302 300 302 302 301 300 299 300 299 297 297 296 294 293
294 295 297 298 297 296 295 294 293 292 293 295 294 295 295 296 296 297 296 297 298 297 299 298 295 296 297 298 298 297 298 298 298 299 299 298 297 298 299 298 298 298 296 295 300 299 299 298 297 296 295 292 291 291
294 295 297 298 297 296 296 296 295 294 294 294 294 295 295 295 296 296 297 296 296 296 297 298 297 295 296 296 297 297 297 297 298 297 297 298 298 298 298 297 297 297 298 297 297 297 296 296 294 293 292 290 290 288
294 295 297 297 297 296 296 296 296 295 295 295 295 295 295 296 295 295 295 295 296 296 298 299 297 297 296 297 297 296 297 297 297 297 297 297 297 297 298 297 297 298 298 297 297 296 295 294 291 290 290 289 289 288
294 294 296 297 297 296 297 297 296 297 296 294 294 295 295 295 295 294 294 294 294 295 298 298 298 298 297 297 297 297 297 298 297 298 298 298 298 298 298 298 298 297 298 296 293 293 293 292 290 289 288 287 287 285
293 294 295 297 297 297 296 297 296 294 294 294 294 294 295 295 294 295 295 295 294 294 296 298 297 298 297 297 297 297 297 298 299 298 297 299 298 296 295 296 296 295 294 294 293 292 292 291 289 288 286 285 284 283
292 294 294 297 298 297 297 296 296 296 294 295 294 294 294 293 293 293 295 296 295 296 296 296 297 298 297 299 298 296 298 298 299 299 298 299 300 296 292 293 291 291 291 291 291 290 289 289 287 286 283 282 281 281
292 293 293 295 297 297 297 296 296 296 295 295 294 293 293 293 293 295 294 294 296 295 295 297 297 297 297 298 298 297 297 297 299 297 298 300 299 292 291 290 289 289 288 288 287 286 285 284 283 283 281 281 281 280
292 292 293 295 296 297 297 297 296 296 294 294 294 293 294 293 296 296 295 295 296 295 295 296 298 297 297 296 295 296 297 298 298 299 299 301 293 291 290 288 287 286 286 286 284 284 284 283 282 281 281 280 279 280
292 292 293 295 295 296 296 296 294 294 295 295 295 294 295 296 295 295 296 296 294 295 296 297 296 298 295 296 296 297 296 297 299 299 300 299 292 290 289 287 286 285 286 285 284 283 282 281 280 280 279 279 279 279
291 291 292 294 294 295 295 295 295 295 293 293 294 295 294 291 291 291 292 293 294 295 296 297 297 297 297 297 297 297 298 298 299 300 301 294 290 288 287 286 287 286 285 284 282 281 281 280 279 279 278 278 278 277
290 289 291 294 294 294 294 295 295 294 292 292 292 293 291 293 293 293 293 294 294 296 297 298 298 299 298 298 298 298 299 299 300 300 294 291 289 287 287 287 286 285 283 282 281 281 280 279 279 278 278 277 277 277
288 290 289 291 293 293 293 294 294 293 291 292 292 291 291 294 294 294 294 294 294 298 299 299 298 298 298 298 298 298 299 300 295 292 291 290 288 288 288 287 285 283 282 281 281 280 279 279 278 278 278 277 277 277
289 289 288 290 292 293 293 292 292 291 290 290 292 291 290 290 292 293 294 293 295 296 298 298 297 298 298 298 299 299 293 291 290 289 288 287 288 288 287 286 283 282 281 280 280 279 279 279 278 278 278 277 277 276
289 288 290 291 291 292 292 291 291 290 289 289 288 289 291 290 291 292 293 294 295 296 297 297 299 299 300 299 299 294 291 290 287 286 285 288 288 287 285 284 282 281 280 280 279 279 279 278 279 278 278 277 277 276
288 289 290 292 293 292 291 290 290 290 291 289 288 289 289 290 291 291 293 294 295 296 296 297 299 299 298 294 294 293 290 288 287 285 284 285 286 285 284 283 281 280 279 279 278 278 278 277 277 277 277 277 277 276
291 292 291 292 291 291 290 290 289 290 289 289 288 289 289 289 291 292 292 293 294 296 296 297 295 294 294 294 293 293 292 290 289 289 287 284 284 282 282 281 281 280 279 279 279 278 278 278 277 276 276 276 276 275
291 291 291 291 291 291 290 290 290 289 289 290 290 289 290 291 291 292 291 293 294 295 294 293 294 294 294 293 293 292 291 289 289 289 287 286 283 282 281 280 280 280 280 279 279 278 278 277 276 276 276 275 275 275
291 291 291 291 291 291 290 290 290 290 291 290 290 291 290 291 290 289 292 292 293 291 292 292 292 292 292 292 292 291 290 289 289 288 287 285 283 282 281 280 280 280 280 279 279 278 277 277 277 276 276 275 275 274
292 292 291 290 291 291 290 291 291 290 290 291 292 291 290 290 288 290 292 292 289 289 289 290 289 289 290 290 289 289 288 288 288 287 285 285 283 281 281 280 280 280 280 279 278 277 277 276 276 276 275 275 275 275
290 290 290 291 291 291 292 292 291 291 291 291 291 291 290 288 291 291 291 290 287 287 287 287 286 286 287 287 286 288 288 287 287 286 285 284 283 281 280 280 279 279 279 279 278 278 277 277 276 276 275 275 275 274
291 288 291 291 292 293 292 292 292 291 291 291 290 288 288 290 290 292 290 289 288 287 287 286 285 284 285 286 286 288 288 287 286 285 285 284 284 283 281 280 279 279 279 278 278 278 277 277 276 276 275 275 275 274
293 291 289 289 290 290 291 291 290 292 291 291 290 289 290 291 292 290 287 287 286 286 286 286 284 284 286 287 287 287 287 286 285 285 285 284 282 282 282 281 281 280 279 279 278 277 277 276 276 275 274 274 274 274
289 288 292 288 289 288 291 292 292 292 291 288 289 290 290 291 291 286 286 286 286 285 286 286 285 285 285 286 286 287 286 285 285 284 284 283 282 281 281 280 280 279 278 278 277 277 277 276 275 274 274 274 273 273
287 286 287 289 288 288 286 289 289 285 284 287 291 290 288 284 284 284 285 285 285 285 284 285 285 285 284 284 284 285 285 285 285 283 283 281 281 281 280 279 279 278 278 278 277 277 275 274 274 274 274 273 273 273
285 285 286 284 288 289 282 281 282 283 284 285 285 285 284 282 282 283 283 284 284 284 284 283 283 283 284 283 283 283 283 283 283 283 283 282 281 281 280 279 279 278 278 278 277 275 274 274 274 273 273 273 272 272
284 284 285 284 284 280 281 282 282 283 283 283 283 283 282 281 280 280 280 281 281 282 282 282 282 282 282 283 283 283 282 282 282 281 280 280 280 280 279 279 279 278 278 277 275 274 274 273 273 273 272 272 272 271
283 283 285 285 283 280 280 280 280 280 279 281 280 280 280 280 279 276 277 278 279 279 280 280 281 281 281 281 281 282 282 282 281 280 280 280 279 279 278 278 277 277 276 274 274 273 273 273 273 272 272 272 271 271
281 281 281 281 282 282 279 279 279 280 279 280 278 277 277 278 276 274 275 276 277 278 279 279 280 280 280 281 281 281 281 281 280 280 280 279 279 279 278 277 276 275 274 274 273 273 273 272 272 272 272 271 271 271

GFSWCAN_850_thetae_141.txt.gz
Theta_e
292 294 297 298 298 297 297 296 296 297 297 298 298 298 300 301 302 303 301 303 303 301 302 305 305 304 303 303 304 302 303 303 304 305 304 305 306 305 305 304 301 301 303 305 305 305 305 304 303 304 304 303 302 301
293 296 298 298 297 296 296 296 297 298 297 297 298 299 299 300 302 303 301 302 302 301 299 301 301 302 302 302 301 302 303 303 304 306 305 304 305 306 306 306 302 305 304 305 304 306 305 303 304 303 302 302 302 300
294 297 298 298 296 296 296 296 297 297 296 296 298 297 299 299 300 300 300 299 299 299 299 300 300 301 302 301 301 304 303 303 304 304 306 305 305 305 306 307 305 305 304 306 305 305 304 302 301 301 301 301 300 299
294 297 298 297 295 295 296 296 297 296 295 296 297 299 298 299 299 299 299 300 300 300 301 299 299 301 301 302 302 303 303 303 303 303 304 305 303 303 305 305 306 305 304 304 304 303 303 302 301 301 300 299 299 297
295 297 298 297 296 294 295 295 296 295 295 297 297 298 298 299 299 299 299 299 299 300 300 300 300 301 301 301 301 302 302 302 302 302 304 303 301 302 303 304 306 304 306 305 305 303 302 302 301 300 299 298 297 296
295 297 298 297 296 294 295 295 295 295 295 295 296 297 297 298 299 299 298 298 299 299 299 299 298 300 301 301 301 301 301 301 301 302 301 300 300 301 303 302 301 301 301 302 301 301 301 301 300 299 297 295 294 292
295 298 298 296 296 295 293 292 293 295 294 295 295 295 297 299 299 300 299 298 299 299 299 300 298 297 299 300 300 300 301 300 300 300 300 299 299 300 301 300 299 299 299 300 300 299 299 298 296 295 294 292 292 291
295 297 297 296 295 294 294 294 294 294 294 295 295 296 296 297 297 296 296 297 299 299 299 300 298 298 298 298 299 299 299 299 299 299 299 300 298 300 300 299 299 300 300 299 299 299 297 294 293 293 293 293 292 291
295 297 297 296 296 296 295 295 295 295 295 295 295 296 296 297 297 296 295 295 296 300 300 300 300 299 298 298 298 298 299 300 298 300 299 300 300 300 300 299 299 299 299 298 297 296 295 295 294 293 292 291 290 289
295 297 297 296 296 296 296 295 295 297 296 295 295 295 295 294 294 295 296 296 297 298 299 301 298 300 298 298 299 299 299 300 301 300 299 302 302 299 300 300 299 298 298 297 296 295 295 294 293 292 290 288 287 286
294 297 297 296 297 297 297 296 296 294 294 295 296 297 295 294 297 297 298 299 298 299 298 299 298 300 299 300 300 299 301 301 301 300 301 301 303 298 297 297 297 297 296 296 295 295 294 294 291 289 287 285 284 284
294 296 297 297 296 296 296 295 294 294 295 296 295 294 294 296 297 299 297 297 298 298 299 299 299 299 299 300 300 300 299 300 301 300 301 302 298 296 295 294 294 294 293 292 291 290 289 288 288 286 284 282 282 282
293 295 297 297 297 296 296 296 295 294 295 295 297 294 297 296 299 299 298 298 299 298 298 298 300 299 299 298 297 298 300 301 299 301 302 303 297 295 293 293 292 291 290 289 287 286 285 284 283 283 282 281 280 279
293 294 297 298 297 297 296 296 294 294 298 298 298 297 299 299 299 300 300 299 298 298 299 298 299 300 298 299 298 299 298 299 301 301 302 300 296 293 292 291 290 289 287 286 284 284 284 283 282 282 281 280 279 278
293 295 296 297 297 297 297 295 294 295 295 296 298 298 296 294 294 295 296 298 299 299 298 299 299 299 300 299 299 299 299 300 301 302 302 297 293 292 291 289 286 286 286 286 284 283 282 282 281 280 280 279 279 279
293 294 295 296 296 296 296 294 295 295 295 295 295 296 296 296 296 296 298 299 298 298 299 298 299 299 299 300 299 300 300 301 302 301 297 294 292 290 289 286 286 286 285 284 283 282 281 280 280 279 279 279 278 278
292 293 294 294 295 296 295 296 296 294 294 294 294 294 296 297 296 295 297 298 298 299 304 300 299 298 299 299 299 300 301 301 298 296 295 293 290 289 286 286 287 285 283 282 282 281 280 279 279 279 278 278 277 277
291 291 293 293 295 295 295 294 294 293 292 293 295 292 293 294 294 295 296 298 299 299 299 300 299 299 299 299 299 301 297 294 294 293 291 290 288 287 287 287 285 283 283 282 281 280 280 279 279 280 279 277 277 277
289 290 292 293 293 293 293 293 293 293 291 291 291 292 292 292 293 294 295 296 298 299 299 299 300 299 300 301 301 298 295 293 292 290 289 288 287 287 287 285 284 282 282 281 280 281 280 281 282 281 280 279 280 279
289 290 291 293 293 294 293 293 293 293 294 291 291 292 293 292 292 293 295 296 297 297 298 299 300 299 299 297 296 297 294 292 289 288 287 286 285 286 286 284 283 281 281 281 281 281 280 280 281 280 280 280 280 279
291 292 291 292 292 293 292 293 292 291 291 291 290 292 291 293 293 294 294 295 297 297 298 298 298 294 294 294 293 293 292 291 292 291 289 286 284 285 283 283 282 282 283 282 281 281 281 281 280 280 278 279 279 278
291 292 293 292 293 293 292 292 292 292 292 291 292 292 293 293 293 294 293 295 296 296 297 297 295 294 293 293 292 291 291 291 292 291 288 286 286 285 284 283 283 283 283 282 282 281 281 281 280 279 278 277 277 277
291 292 291 292 292 292 291 292 293 293 294 293 294 294 293 293 293 292 294 295 295 294 294 292 292 292 293 293 292 291 290 290 289 289 287 287 286 285 285 283 284 283 283 282 282 281 281 280 278 278 278 277 276 276
292 292 291 293 293 292 292 292 293 292 293 294 295 294 293 292 291 293 295 295 293 291 289 290 289 289 290 291 289 289 289 289 288 286 286 286 286 285 284 284 284 283 283 282 282 281 280 278 277 277 277 277 277 277
292 291 292 293 293 293 293 294 293 294 294 294 294 293 292 291 294 295 295 295 291 290 290 287 288 289 291 290 290 288 288 289 288 287 286 287 286 285 284 284 283 283 282 281 281 280 278 278 277 278 277 277 277 277
293 291 293 293 293 294 294 294 294 294 294 294 293 292 291 293 294 295 294 292 290 289 288 287 287 287 288 290 289 287 287 287 288 288 286 286 285 285 284 283 283 282 281 281 280 279 279 278 278 277 277 277 276 276
294 293 292 290 292 293 293 293 293 294 294 294 293 292 293 294 295 292 289 286 288 285 284 284 286 287 288 287 288 287 285 286 287 287 285 284 284 284 284 283 282 282 280 280 280 279 279 277 277 277 277 277 275 275
291 291 294 291 292 291 294 294 294 295 294 292 292 293 294 295 293 287 284 283 284 284 283 284 284 285 285 285 284 285 284 285 285 285 283 283 283 283 282 282 282 281 280 279 279 279 279 278 277 277 276 276 275 274
291 288 289 291 291 291 290 293 293 288 286 290 295 293 290 283 281 282 283 284 285 284 283 283 284 284 284 285 285 285 286 285 285 284 284 282 282 281 281 281 281 280 279 279 278 278 277 277 276 276 275 275 273 273
288 287 290 290 292 292 285 283 285 282 284 285 285 285 284 279 279 281 283 283 282 281 282 282 282 282 282 283 283 284 284 283 283 284 284 284 282 282 282 281 280 279 279 278 278 278 277 276 275 274 274 274 273 273
285 288 289 289 288 285 282 282 283 283 282 283 285 287 284 279 277 279 280 280 279 279 280 280 280 281 281 281 281 282 283 283 283 283 283 283 283 282 281 281 279 279 278 278 278 278 276 275 274 274 273 273 273 272
287 287 288 289 286 281 281 283 284 285 284 285 284 283 282 283 282 276 276 277 275 275 278 278 278 279 280 280 281 281 281 282 282 282 282 281 280 280 280 280 279 279 278 278 278 276 274 274 273 273 272 272 272 272
285 285 285 286 286 286 282 284 284 284 284 284 282 281 280 281 279 274 273 275 275 275 277 278 278 279 279 280 280 280 281 281 281 281 280 280 280 279 279 279 279 278 278 277 276 274 273 273 272 272 271 272 272 271